グレーラー彗星

P/2019 V2 ( Groeller )

English version
Home page
Updated on April 17, 2020

---------------------------------------------------------------------

・ プロフィール

発見日 2019年11月3日
発見光度 20.7等
発見者 Hannes Groeller (Mount Lemmon Survey)

・ 写真集

・ 軌道要素

Epoch 2020 Nov. 7.0 TT = JDT 2459160.5
T 2020 Oct. 20.28306 TT                                 Rudenko
q   5.0204305            (2000.0)            P               Q
n   0.04781410     Peri.  336.05757     -0.96562559     -0.25788028
a   7.5179376      Node   189.18085     +0.25901881     -0.94405881
e   0.3322064      Incl.   11.80236     +0.02182833     -0.20554981
P  20.6
From 61 observations 2019 Nov. 3-2020 Mar. 15, mean residual 0".5.

・ 光度変化

        m1 = 9.5 + 5 logΔ + 10.0 log r

---------------------------------------------------------------------

軌道要素はM.P.E.C. 2020-G91に掲載されたものです。
光度グラフはComet for Windowsで作成したものです。

---------------------------------------------------------------------

Copyright(C) Seiichi Yoshida (comet@aerith.net). All rights reserved.